Terminal Aerodrome Forecast
Issued by NWS

Current Version | Previous Version | Text Only | Print | Product List | Glossary On
Versions: 1 2 3 4 5 6 7 8 9 10 11 12 13 14 15 16 17 18 19 20 21 22 23 24 25 26 27 28 29 30 31 32 33 34 35 36 37 38 39 40 41 42 43 44 45 46 47 48 49 50
000
FTUS41 KCTP 262137 AAB
TAFLNS
TAF AMD
KLNS 262137Z 2622/2718 33008KT 2SM -SN BR SCT009 OVC020
     FM262300 30010KT 3SM -SN BR OVC025
     FM270400 26003KT 6SM BR VCSH BKN025 OVC150
     FM270600 31004KT P6SM SCT040=

USA.gov is the U.S. government's official web portal to all federal, state and local government web resources and services.